Terminal Aerodrome Forecast
Issued by NWS Green Bay, WI

Home | Current Version | Previous Version | Text Only | Print | Product List | Glossary Off
Versions: 1 2 3 4 5 6 7 8 9 10 11 12 13 14 15 16 17 18 19 20 21 22 23 24 25 26 27 28 29 30 31 32 33 34

280
FTUS43 KGRB 082320
TAFGRB
TAF
KGRB 082320Z 0900/0924 29012G20KT P6SM BKN045
     FM090500 29010KT P6SM BKN035
     FM091500 28011G16KT P6SM BKN040
     FM092200 27008KT P6SM SCT045=

USA.gov is the U.S. government's official web portal to all federal, state and local government web resources and services.